This demonstration page uses our WeatherBlox Daily Observations layout. Learn more.

Hourly Observations for October 3, 2015

Temp ( °F °C ) Dew Point ( °F °C ) Humidity (%) Winds ( mph kmh ) Pressure ( in mb ) Visibility ( mi km ) Precip ( " mm )
1:15 am 01:15 Cloudy with Nearby Thunderstorms 51 10.6 38 3.6 62 62 SE 13 20 30.12 1020 10 16.0934 0 0
1:35 am 01:35 Cloudy 51 10.5 39 3.7 63 63 ESE 13 20 30.12 1020 10 16.0934 0 0
1:55 am 01:55 Cloudy 50 10.2 39 3.7 64 64 ESE 13 20 30.15 1021 10 16.0934 0 0
2:15 am 02:15 Cloudy 50 10.1 39 3.9 66 66 ESE 10 17 30.15 1021 10 16.0934 0 0
2:35 am 02:35 Cloudy 50 10 39 4 67 67 ESE 12 19 30.12 1020 10 16.0934 0 0
2:55 am 02:55 Cloudy with Light Rain 49 9.4 40 4.7 73 73 SE 9 15 30.15 1021 10 16.0934 0 0
3:15 am 03:15 Cloudy with Light Thunderstorms 48 9 42 5.5 79 79 ESE 10 17 30.15 1021 10 16.0934 0.02 0.508
3:35 am 03:35 Cloudy with Thunderstorms 47 8.6 42 5.7 82 82 ESE 13 20 30.12 1020 10 16.0934 0.06 1.524
4:15 am 04:15 Cloudy 47 8.5 42 5.7 83 83 ESE 13 20 30.12 1020 10 16.0934 0 0
4:55 am 04:55 Cloudy 47 8.2 43 6 86 86 ESE 8 13 30.15 1021 10 16.0934 0.01 0.254
5:15 am 05:15 Cloudy 47 8.3 43 6.1 86 86 ESE 8 13 30.15 1021 10 16.0934 0 0
5:35 am 05:35 Cloudy 47 8.3 43 6 86 86 SE 9 15 30.15 1021 10 16.0934 0 0
5:55 am 05:55 Cloudy 47 8.2 43 6 86 86 ESE 13 20 30.15 1021 10 16.0934 0 0
6:15 am 06:15 Cloudy with Rain 46 8 43 5.9 87 87 ESE 17 28 30.12 1020 7 11.26538 0.01 0.254
6:35 am 06:35 Cloudy with Light Rain 46 8 43 6 87 87 ESE 16 26 30.12 1020 10 16.0934 0.03 0.762
6:55 am 06:55 Cloudy 46 8 42 5.7 86 86 ESE 9 15 30.12 1020 10 16.0934 0.03 0.762
7:15 am 07:15 Cloudy with Light Rain 46 7.8 43 6.1 89 89 ESE 6 9 30.12 1020 10 16.0934 0 0
7:35 am 07:35 Cloudy with Light Rain 46 8 43 6 87 87 ESE 8 13 30.12 1020 10 16.0934 0.01 0.254
7:55 am 07:55 Cloudy with Light Rain 46 8 43 6.1 88 88 SE 9 15 30.12 1020 10 16.0934 0.02 0.508
8:15 am 08:15 Cloudy with Light Drizzle 47 8.1 43 6.3 89 89 ESE 9 15 30.12 1020 10 16.0934 0 0
8:35 am 08:35 Cloudy with Light Rain 46 8 43 6.2 89 89 SE 8 13 30.15 1021 10 16.0934 0 0
8:55 am 08:55 Cloudy with Rain 46 8 43 6.2 89 89 SE 5 7 30.15 1021 7 11.26538 0.01 0.254
9:35 am 09:35 Cloudy with Light Rain 46 7.8 44 6.5 92 92 SE 9 15 30.15 1021 7 11.26538 0.08 2.032
9:55 am 09:55 Cloudy with Light Drizzle 46 7.8 44 6.6 92 92 ESE 10 17 30.15 1021 10 16.0934 0.09 2.286
10:15 am 10:15 Cloudy with Drizzle 46 7.7 44 6.5 92 92 ESE 10 17 30.15 1021 10 16.0934 0 0
10:35 am 10:35 Cloudy with Rain 46 7.7 44 6.5 92 92 ESE 13 20 30.15 1021 5 8.0467 0.06 1.524
10:55 am 10:55 Cloudy with Light Rain 46 7.7 44 6.5 92 92 E 14 22 30.12 1020 7 11.26538 0.07 1.778
11:15 am 11:15 Cloudy 46 8 44 6.6 91 91 ESE 14 22 30.12 1020 10 16.0934 0 0
11:35 am 11:35 Cloudy 46 8 44 6.6 91 91 E 13 20 30.12 1020 10 16.0934 0 0
11:55 am 11:55 Cloudy 47 8.2 44 6.8 91 91 ESE 10 17 30.12 1020 10 16.0934 0 0
12:15 pm 12:15 Cloudy 47 8.5 44 6.9 90 90 ESE 10 17 30.12 1020 10 16.0934 0 0
12:35 pm 12:35 Cloudy 48 8.9 44 6.9 87 87 ESE 12 19 30.12 1020 10 16.0934 0 0
12:55 pm 12:55 Cloudy 49 9.3 45 7.2 87 87 ESE 12 19 30.12 1020 10 16.0934 0 0
1:15 pm 13:15 Cloudy 49 9.4 45 7.1 86 86 ESE 10 17 30.12 1020 10 16.0934 0 0
1:35 pm 13:35 Cloudy 50 10.1 46 7.5 84 84 ESE 14 22 30.12 1020 10 16.0934 0 0
1:55 pm 13:55 Cloudy 52 11.1 46 7.8 80 80 ESE 13 20 30.06 1018 10 16.0934 0 0
2:15 pm 14:15 Cloudy 53 11.7 46 7.7 77 77 ESE 13 20 30.06 1018 10 16.0934 0 0
2:35 pm 14:35 Cloudy 54 12.1 45 7.3 73 73 ESE 14 22 30.06 1018 10 16.0934 0 0
2:55 pm 14:55 Cloudy 55 12.5 45 7.1 70 70 SE 14 22 30 1016 10 16.0934 0 0
3:15 pm 15:15 Cloudy 55 12.9 45 7.2 69 69 ESE 14 22 30 1016 10 16.0934 0 0
3:35 pm 15:35 Cloudy 56 13.5 44 6.8 64 64 ESE 16 26 30 1016 10 16.0934 0 0
3:55 pm 15:55 Cloudy 56 13.4 44 6.4 63 63 SE 13 20 30 1016 10 16.0934 0 0
4:15 pm 16:15 Cloudy 56 13.2 44 6.5 64 64 SE 14 22 30 1016 10 16.0934 0 0
4:35 pm 16:35 Cloudy 55 12.9 44 6.6 66 66 ESE 13 20 30 1016 10 16.0934 0 0
4:55 pm 16:55 Cloudy 55 13 43 6.3 64 64 SE 13 20 30 1016 10 16.0934 0 0
5:15 pm 17:15 Cloudy 55 13 43 5.9 62 62 ESE 9 15 30 1016 10 16.0934 0 0
5:35 pm 17:35 Cloudy 55 12.9 42 5.8 62 62 ESE 13 20 30 1016 10 16.0934 0 0
5:55 pm 17:55 Cloudy 55 13 42 5.8 62 62 SE 10 17 30.06 1018 10 16.0934 0 0
6:15 pm 18:15 Cloudy 55 13 42 5.8 62 62 SE 7 11 30.06 1018 10 16.0934 0 0
6:35 pm 18:35 Cloudy 55 12.8 43 5.9 63 63 SE 5 7 30.06 1018 10 16.0934 0 0
6:55 pm 18:55 Cloudy 55 12.5 44 6.8 68 68 E 5 7 30.06 1018 10 16.0934 0 0
7:15 pm 19:15 Cloudy 55 12.5 45 7 69 69 E 5 7 30.06 1018 10 16.0934 0 0
7:35 pm 19:35 Cloudy 54 12.3 44 6.8 69 69 ESE 6 9 30.06 1018 10 16.0934 0 0
7:55 pm 19:55 Cloudy 54 12 45 7.1 72 72 E 6 9 30.06 1018 10 16.0934 0 0
8:15 pm 20:15 Cloudy 54 12 44 6.9 71 71 ESE 3 6 30.09 1019 10 16.0934 0 0
8:35 pm 20:35 Cloudy 54 12 45 7.1 72 72 E 7 11 30.09 1019 10 16.0934 0 0
8:55 pm 20:55 Cloudy 54 12.1 44 6.6 69 69 E 7 11 30.09 1019 10 16.0934 0 0
9:15 pm 21:15 Cloudy 54 12 44 6.4 69 69 E 5 7 30.09 1019 10 16.0934 0 0
9:35 pm 21:35 Cloudy 53 11.8 43 6.3 69 69 E 10 17 30.09 1019 10 16.0934 0 0
9:55 pm 21:55 Cloudy 53 11.7 43 6.1 69 69 ESE 7 11 30.09 1019 10 16.0934 0 0
10:15 pm 22:15 Cloudy 53 11.7 42 5.7 67 67 ESE 7 11 30.09 1019 10 16.0934 0 0
10:35 pm 22:35 Cloudy 53 11.8 41 5.2 64 64 ESE 7 11 30.12 1020 10 16.0934 0 0
10:55 pm 22:55 Cloudy 53 11.8 40 4.7 62 62 ESE 8 13 30.12 1020 10 16.0934 0 0
11:15 pm 23:15 Cloudy 53 11.9 40 4.3 60 60 ESE 8 13 30.12 1020 10 16.0934 0 0
11:35 pm 23:35 Cloudy 53 11.8 39 4 59 59 ESE 8 13 30.09 1019 10 16.0934 0 0
11:55 pm 23:55 Cloudy 53 11.5 39 4.1 61 61 ESE 8 13 30.09 1019 10 16.0934 0 0

Powered by AerisWeather